sat.trackr.live / text

‹ back to catalog

STARLINK-30794

NORAD 58218 · 2023-170N

PAYLOAD ACTIVE UNKNOWN

§ Identity

Operator
Country
US
Launch date
2023-11-03
Launch site
AFETR
Launch vehicle
Mass (kg)
RCS (m²)

Purposes: comms

External: N2YO · Heavens-Above · Gunter

§ Orbital elements

Epoch: 2026-05-25T04:46:31.310400Z

Period
94.27 min
Inclination
43.0024°
Eccentricity
0.0001712
Mean motion
15.27576667 rev/d
Perigee alt
481.9 km
Apogee alt
484.2 km
Semi-major
6,861.2 km
B*
1.2016e-4
RAAN
121.8614°
Arg perigee
267.2761°
Mean anomaly
92.7895°
Rev number
14,200

§ Raw data

STARLINK-307941 58218U 23170N   26145.19897350  .00003045  00000+0  12016-3 0  99912 58218  43.0024 121.8614 0001712 267.2761  92.7895 15.27576667142003

JSON: /api/v1/satellites/58218 · /tle

For live sub-satellite position, see the globe view (requires WebGL).

§ Visibility from observer

Set your observer location to see the next 7 days of passes ≥ 10°. The values pass through the URL so the page stays shareable.

No JS? Fill the form by hand. The geolocation button needs JavaScript.